Location: Budapest
(47.4979°N, 19.0402°E)
Time: 02:43:01
(UTC+01:00)

OTV 5 (USA 277) - Pass Details

Date: 12 October 2017
Orbit: 404 x 417 km, 43.0° (Epoch: 07 September)

Event Time Altitude Azimuth Distance (km) Brightness Sun altitude
Rises 19:27:48 0° 236° (SW) 2,349 ? -15.4°
Reaches altitude 10° 19:30:05 10° 223° (SW) 1,488 ? -15.7°
Maximum altitude 19:32:59 27° 164° (SSE) 840 ? -16.2°
Enters shadow 19:33:23 26° 151° (SSE) 858 ? -16.3°
